Regional Weather Roundup
Issued by NWS Upton, NY

Current Version | Previous Version | Text Only | Print | Product List | Glossary On
Versions: 1 2 3 4 5 6 7 8 9 10 11 12 13 14 15 16 17 18 19 20 21 22 23 24 25 26 27 28 29 30 31 32 33 34 35 36 37 38 39 40 41 42 43 44 45 46 47 48 49 50
000
ASUS41 KOKX 282005
RWROKX

REGIONAL WEATHER ROUNDUP
NATIONAL WEATHER SERVICE NEW YORK NY
300 PM EST SAT FEB 28 2015

NOTE: "FAIR" INDICATES FEW OR NO CLOUDS BELOW 12,000 FEET WITH NO
SIGNIFICANT WEATHER AND/OR OBSTRUCTIONS TO VISIBILITY.

NYZ071-072-176-178-NJZ106-104-282100-
NEW YORK CITY METRO AREA


CITY           SKY/WX    TMP DP  RH WIND       PRES   REMARKS
CENTRAL PARK   SUNNY     28   0  29 NW5       30.77F WCI  23
LAGUARDIA APRT MOSUNNY   28   2  32 NW3       30.76F
KENNEDY INTL   MOSUNNY   28   3  34 SW10      30.77F WCI  19
NEWARK/LIBERTY MOSUNNY   30   1  29 W6        30.76F WCI  24
BRNX BOT. GARD   N/A    N/A N/A N/A NW5       30.77R
TETERBORO      SUNNY     29  -2  26 VRB3      30.75F
$$

NYZ177-179-078>081-282100-
LONG ISLAND NEW YORK

CITY           SKY/WX    TMP DP  RH WIND       PRES   REMARKS
FARMINGDALE    SUNNY     27   1  32 W8        30.75F WCI  19
ISLIP          MOSUNNY   27   2  34 W7        30.73S WCI  19
SHIRLEY        SUNNY     27   5  39 W8        30.75F WCI  19
WESTHAMPTON    SUNNY     26   2  35 NW8       30.75F WCI  18
MONTAUK POINT    N/A     26   9  48 W6        30.74S WCI  19
$$

NYZ052-065-067-282100-
HUDSON VALLEY

CITY           SKY/WX    TMP DP  RH WIND       PRES   REMARKS
WHITE PLAINS   SUNNY     25   0  33 NW8       30.71F WCI  16
NEWBURGH       SUNNY     28   5  37 CALM      30.73F
MONTGOMERY     SUNNY     25  -3  29 S6        30.70F WCI  18
POUGHKEEPSIE   SUNNY     27   2  34 CALM      30.74F
ALBANY         SUNNY     25   5  42 W8        30.74S WCI  16
$$

NJZ001-105-106-008-010-013-015-019>022-104-282100-
NEW JERSEY

CITY           SKY/WX    TMP DP  RH WIND       PRES   REMARKS
NEWARK/LIBERTY MOSUNNY   30   1  29 W6        30.76F WCI  24
TETERBORO      SUNNY     29  -2  26 VRB3      30.75F
CALDWELL       SUNNY     29   0  28 CALM      30.74F
MORRISTOWN     MOSUNNY   28   1  31 W6        30.75F WCI  22
SOMERVILLE     SUNNY     29   1  30 VRB3      30.74F
SUSSEX         SUNNY     27   0  31 VRB3      30.71F
ANDOVER          N/A     26  -1  31 SW6       30.70F WCI  19
TRENTON        SUNNY     27  -3  27 W7        30.75F WCI  19
MILLVILLE      SUNNY     29   4  34 NW7       30.77F WCI  22
ATLANTIC CITY  SUNNY     32   0  25 W7        30.76F WCI  26
WRIGHTSTOWN    SUNNY     28   1  30 W9        30.74F WCI  19
TOMS RIVER     SUNNY     30   1  29 W3        30.76R
BELMAR         SUNNY     28   1  31 NW8       30.75F WCI  20
$$

PAZ047>061-062-071-282100-
EASTERN PENNSYLVANIA

CITY           SKY/WX    TMP DP  RH WIND       PRES   REMARKS
PHILADELPHIA   MOSUNNY   30  -4  23 NW6       30.78F WCI  24
ALLENTOWN      SUNNY     26  -4  27 CALM      30.74F
SCRANTON       SUNNY     24   0  35 CALM      30.69F
$$

CTZ002-004>006-009-010-012-RIZ004-006-007-MAZ004-011-015-282100-
SOUTHERN NEW ENGLAND
 IN CT

CITY           SKY/WX    TMP DP  RH WIND       PRES   REMARKS
BRADLEY INTL   MOSUNNY   28   4  35 SE9       30.69F WCI  19
HARTFORD       SUNNY     28   1  31 S6        30.72F WCI  22
DANBURY        SUNNY     26  -2  29 NW6       30.72F WCI  19
WTRBRY/OXFORD  SUNNY     25   0  33 NW8       30.69F WCI  16
BRIDGEPORT     SUNNY     26  13  57 SW13      30.74F WCI  15
MERIDEN        SUNNY     29   1  30 W8        30.72F WCI  21
NEW HAVEN      SUNNY     29   3  33 NW7       30.72F WCI  22
CHESTER        FAIR      30  -2  24 NW6       30.70S WCI  24
GROTON         SUNNY     25  11  55 SW12      30.71F WCI  14
WILLIMANTIC    SUNNY     28  -4  25 W6        30.70F WCI  22

 IN RI

CITY           SKY/WX    TMP DP  RH WIND       PRES   REMARKS
PROVIDENCE     MOSUNNY   25   9  50 S9        30.70F WCI  15
BLOCK ISLAND   SUNNY     27   7  43 W9        30.70F WCI  17
WESTERLY       SUNNY     26   9  48 W9        30.72S WCI  17

 IN MA

CITY           SKY/WX    TMP DP  RH WIND       PRES   REMARKS
BOSTON         SUNNY     30   2  30 W8        30.68F WCI  22
WORCESTER      SUNNY     25  -2  31 W10       30.61F WCI  15
WESTFIELD      SUNNY     29   1  30 S6        30.68S WCI  23
PROVINCETOWN   SUNNY     25   9  50 SW5       30.70F WCI  19
NANTUCKET      SUNNY     26   7  44 W9        30.71S WCI  17
$$

ANZ330-335-338-340-345-350-353-355-282100-
COASTAL MARINE OBSERVATIONS


STATION/POSITION TIME  SKY/WX   TEMP    WIND        PRES    VSBY  WAVE
                                AIR SEA DIR/SP/G                  HT/PER
                 (UTC)          (F)     (DEG/KT/KT) (MB)    (MI)  (FT/S)
NY HARB ENTRANCE 2000            24 38  310/  8/ 12 1041.9          2/10
4S FIRE IS       NOT AVBL
20S FIRE ISLAND  1900               37              1042.5          3/ 9
23SW MTP         2000                                 N/A           3/10
HUDSON CANYON    NOT AVBL
EXECUTION ROCKS  NOT AVBL
WESTERN LI SOUND NOT AVBL
CENTRAL LI SOUND NOT AVBL
EASTERN LI SOUND NOT AVBL
ROBBINS REEF     2000            25     340/  4/  5 1040.6
$$


>>>>>>>>>>>>>>>>>>>>>>>>>>>> KEY <<<<<<<<<<<<<<<<<<<<<<<<<<<
>                                                          <
>     SKY/WX - SKY CONDITION/PRESENT WEATHER               <
>     TMP    - TEMPERATURE IN FAHRENHEIT                   <
>     DP     - DEWPOINT IN FAHRENHEIT                      <
>     RH     - RELATIVE HUMIDITY IN PERCENT                <
>     WIND   - DIRECTION AND SPEED IN MPH                  <
>     PRES   - MEAN SEA LEVEL PRESSURE IN INCHES OF HG     <
>     WCI    - WIND CHILL INDEX                            <
>     VSB    - VISIBILITY IN MILES                         <
>     HX     - HEAT INDEX                                  <
>     TC     - TEMPERATURE IN CELSIUS                      <
>     VRB    - VARIABLE WIND DIRECTION                     <
>                                                          <
>>>>>>>>>>>>>>>>>>>>>>>>>>>> KEY <<<<<<<<<<<<<<<<<<<<<<<<<<<




USA.gov is the U.S. government's official web portal to all federal, state and local government web resources and services.